Index of /hbase/Kinetic

[ICO]NameLast modifiedSizeDescription

[DIR]Parent Directory  -  
[TXT]weighgas.html09-Nov-2016 10:18 3.3K 
[TXT]watvap.html05-Jan-2017 20:04 8.6K 
[TXT]waal.html20-Apr-2017 10:18 6.5K 
[TXT]visgas.html09-Nov-2016 10:18 5.7K 
[TXT]vappre.html05-Jan-2017 20:04 13K 
[TXT]vapcon.html09-Nov-2016 10:18 1.5K 
[TXT]statcom.html09-Nov-2016 10:18 5.5K 
[TXT]shegas.html09-Nov-2016 10:18 10K 
[TXT]savmov.html09-Nov-2016 10:18 1.6K 
[TXT]relhum.html01-Mar-2017 15:45 18K 
[TXT]psav.html09-Nov-2016 10:18 3.4K 
[TXT]popfrac.html09-Nov-2016 10:18 8.0K 
[TXT]pmdgm.html09-Nov-2016 10:18 2.0K 
[TXT]pmdg.html09-Nov-2016 10:18 3.0K 
[TXT]pdrum4.html09-Nov-2016 10:18 2.1K 
[TXT]pdrum3.html09-Nov-2016 10:18 2.0K 
[TXT]pdrum2.html09-Nov-2016 10:18 2.0K 
[TXT]pdrum1.html09-Nov-2016 10:18 2.0K 
[TXT]pdrum.html09-Nov-2016 10:18 4.2K 
[TXT]pcokem.html09-Nov-2016 10:18 2.1K 
[TXT]pcoke.html09-Nov-2016 10:18 2.1K 
[TXT]patm.html09-Nov-2016 10:18 1.8K 
[TXT]ospcal.html09-Nov-2016 10:18 3.6K 
[TXT]molke.html09-Nov-2016 10:18 4.7K 
[TXT]menfrevis.html09-Nov-2016 10:18 10K 
[TXT]menfre.html09-Nov-2016 10:18 13K 
[TXT]maxspe.html09-Nov-2016 10:18 7.9K 
[VID]madgeburg.mp409-Nov-2016 10:18 3.4M 
[VID]madgeburg.mov09-Nov-2016 10:18 11M 
[TXT]ktcon.html09-Nov-2016 10:18 2.4K 
[TXT]kinthe.html09-Nov-2016 10:18 5.7K 
[TXT]kintem.html09-Nov-2016 10:18 13K 
[DIR]kinpic/07-May-2015 16:04 -  
[TXT]kapcon.html09-Nov-2016 10:18 1.8K 
[DIR]imgkin/18-Apr-2017 20:33 -  
[TXT]idgcon.html09-Nov-2016 10:18 1.5K 
[TXT]idegasc.html09-Nov-2016 10:18 9.0K 
[TXT]idegas.html09-Nov-2016 10:18 13K 
[TXT]henry.html09-Nov-2016 10:18 10K 
[TXT]frecol.html09-Nov-2016 10:18 5.5K 
[TXT]eqpar.html09-Nov-2016 10:18 12K 
[TXT]eggosm.html09-Nov-2016 10:18 3.4K 
[VID]drum4.mp409-Nov-2016 10:18 1.6M 
[VID]drum4.mov09-Nov-2016 10:18 2.7M 
[VID]drum3.mp409-Nov-2016 10:18 1.3M 
[VID]drum3.mov09-Nov-2016 10:18 2.9M 
[VID]drum2.mp409-Nov-2016 10:18 2.0M 
[VID]drum2.mov09-Nov-2016 10:18 3.1M 
[VID]drum.mp409-Nov-2016 10:18 1.1M 
[VID]drum.mov09-Nov-2016 10:18 1.9M 
[TXT]diffus.html09-Nov-2016 10:18 12K 
[VID]crushcan.mp409-Nov-2016 10:18 808K 
[VID]crushcan.mov09-Nov-2016 10:18 3.6M 
[TXT]bolapp.html09-Nov-2016 10:18 5.0K 
[TXT]barfor.html09-Nov-2016 10:18 12K 
[VID]Saveng.mp409-Nov-2016 10:18 3.2M 
[VID]Saveng.mov09-Nov-2016 10:18 12M 
[TXT]Maxspe.html07-May-2015 16:03 7.9K 
[TXT]Maxdev.html09-Nov-2016 10:18 9.5K 
[TXT]Henry.html07-May-2015 16:03 10K 

Apache/2.2.15 (CentOS) Server at hyperphysics.phy-astr.gsu.edu Port 80